This demonstration page uses our WeatherBlox Daily Observations layout. Learn more.

39.92423, -83.80882

Hourly Observations for September 21, 2016

Temp ( °F °C ) Dew Point ( °F °C ) Humidity (%) Winds ( mph kmh ) Pressure ( in mb ) Visibility ( mi km ) Precip ( " mm )
12:56 am 00:56 Clear 62 16.7 57 13.9 84 84 SSE 5 7 30.15 1021 10 16.0934 0 0
1:56 am 01:56 Clear 60 15.6 56 13.3 86 86 Calm 30.15 1021 10 16.0934 0 0
2:56 am 02:56 Clear 58 14.4 56 13.3 93 93 Calm 30.16 1021 10 16.0934 0 0
3:56 am 03:56 Clear 58 14.4 55 12.8 90 90 E 3 6 30.15 1021 10 16.0934 0 0
4:56 am 04:56 Clear 57 13.9 55 12.8 93 93 Calm 30.14 1021 10 16.0934 0 0
5:56 am 05:56 Clear 57 13.9 55 12.8 93 93 E 3 6 30.15 1021 10 16.0934 0 0
6:56 am 06:56 Clear 56 13.3 54 12.2 93 93 NE 5 7 30.18 1022 10 16.0934 0 0
7:56 am 07:56 Sunny 57 13.9 55 12.8 93 93 Calm 30.2 1023 10 16.0934 0 0
8:56 am 08:56 Sunny 65 18.3 60 15.6 84 84 E 5 7 30.2 1023 10 16.0934 0 0
9:56 am 09:56 Sunny 72 22.2 62 16.7 71 71 ESE 3 6 30.2 1023 10 16.0934 0 0
10:56 am 10:56 Sunny 79 26.1 59 15 50 50 Calm 30.21 1023 10 16.0934 0 0
11:56 am 11:56 Sunny 82 27.8 61 16.1 49 49 NNW 3 6 30.21 1023 10 16.0934 0 0
12:56 pm 12:56 Sunny 84 28.9 59 15 43 43 VRB 3 6 30.2 1023 10 16.0934 0 0
1:56 pm 13:56 Sunny 85 29.4 56 13.3 37 37 VRB 6 9 30.19 1022 10 16.0934 0 0
2:56 pm 14:56 Sunny 85 29.4 56 13.3 37 37 VRB 3 6 30.17 1022 10 16.0934 0 0
3:43 pm 15:43 Mostly Sunny 86 30 57 14 38 38 ENE 6 9 30.12 1020 10 16.0934 0 0
3:56 pm 15:56 Mostly Sunny 86 30 59 15 40 40 VRB 6 9 30.14 1021 10 16.0934 0 0
4:56 pm 16:56 Sunny 86 30 56 13.3 36 36 Calm 30.13 1020 10 16.0934 0 0
5:56 pm 17:56 Sunny 85 29.4 58 14.4 40 40 NE 5 7 30.13 1020 10 16.0934 0 0
7:56 pm 19:56 Hazy 75 23.9 60 15.6 60 60 Calm 30.14 1021 6 9.65604 0 0
8:56 pm 20:56 Clear 72 22.2 59 15 64 64 ESE 5 7 30.14 1021 10 16.0934 0 0
9:56 pm 21:56 Clear 66 18.9 59 15 78 78 ESE 5 7 30.13 1020 10 16.0934 0 0
10:56 pm 22:56 Clear 67 19.4 58 14.4 73 73 Calm 30.13 1020 10 16.0934 0 0
11:56 pm 23:56 Clear 62 16.7 57 13.9 84 84 ESE 5 7 30.12 1020 10 16.0934 0 0

Powered by AerisWeather